Погода в Рыбинске

Погода в Рыбинске : погода сейчас, прогноз погоды и архив. Всё, что Вы хотите узнать о погоде в Рыбинске!

Хотите узнать прогноз погоды в Рыбинске? Тогда Вам сюда: Погода в Рыбинске

Поиск расширенной информации на нашем сайте:

Другие новости

Новости СМИ2

Главная страница сайта

Новости сайта

03.07.2017

Напоминаем, что на нашем специализированном сайте Метеоцентр.Азия вы можете получить высокодетализированные автоматические прогнозы погоды по пунктам России, СНГ и мира в авиационном формате (включающие направление и скорость ветра, видимость, явления погоды, количество и форму облачности, нижнюю и верхнюю границу облачности).


Погода в Рыбинске - сегодня

Время (UTC), дата Ветер
(°,м/с) 
Видим.   Явления Облачность Т
(°С)
Тd
(°С)
f(%) Тe
(°С)
Pmin
(гПа)
dP
(гПа)
Po
(мм)
O2
(г/м3)
Тmin Tmax R s Состояние
почвы
21 14.08.18 тихо ()   10 км    ясно 
+11.1 +10 93 +12  1014.8  0.7  752  289           
00 15.08.18 150 (ЮВ) 10 км    ясно 
+10.8 +9.9 94 +13  1014.3  -0.5  751  289           
03 15.08.18 130 (ЮВ) 12000 м    8/8 2000 м средняя 
[Ac trans]
+11.5 +10.5 94 +15  1014  -0.3  751  288  +10.5        влажная 
06 15.08.18 130 (ЮВ) 12000 м    9/9 2000 м средняя 
[Ac trans]
+15.3 +11.9 80 +21  1012.5  -1.3  750  284           
09 15.08.18 100 (В) 13000 м  {ливн. осадки}  10/10 2000 м 
[Sc]
+17.6 +14.1 80 +25  1010.7  -1.7  749  281           
18 15.08.18 тихо ()   10 км  в посл. час гроза{ливн. осадки}  8/8 300 м 
[Sc diur, vesp]
+17.3 +16.2 93 +28  1006.8  -0.3  746  279           
21 15.08.18 250 (З) 10 км  в посл. час ливневой дождь  8/8 300 м 
[Sc diur, vesp]
+16.3 +15.2 93 +27  1007.5  0.6  746  281           
00 16.08.18 340 (С) 10 км    10/10 300 м 
[Sc]
+15.5 +14.1 91 +24  1009.7  2.2  748  282           
03 16.08.18 040 (СВ) 10 км    10/10 300 м 
[Sc]
+14.7 +13.2 91 +22  1012.1  2.2  750  284  +14.7       
06 16.08.18 020 (С) 13000 м    8/8 300 м 
[Cu hum]
+17.3 +12.9 75 +24  1014.4  2.5  752  282  +14.7         
09 16.08.18 350 (С) 19000 м    6/6 300 м 
[Cu hum]
+19.8 +12.8 64 +26  1016.5  2.1  753  280           
12 16.08.18 320 (СЗ) 20000 м    4/4 300 м 
[Cu med, cong]
+20.2 +12.4 61 +25  1018.3  1.9  755  281           
18 16.08.18 360 (С) 10 км    3/3 300 м 
[Cu med, cong]
+15.8 +11.6 76 +20  1020.7  1.4  756  286           
21 16.08.18 тихо ()   10 км    ясно 
+12 +10.5 91 +14  1022.2  1.4  757  290           
00 17.08.18 тихо ()   10 км    ясно 
+9.9 +8.9 93 +10  1023.5  1.1  758  293           
03 17.08.18 тихо ()   12000 м    4/0 верхняя 
[Ci fib]
+10.4 +9.3 93 +10  1025  1.5  759  293  +8.9        влажная 
06 17.08.18 тихо ()   13000 м    ясно 
+18.3 +9.6 57 +19  1025.5  0.9  760  285           
09 17.08.18 330 (СЗ) 19000 м    4/4 600 м 
[Cu med, cong]
+20.9 +10.1 50 +22  1025.2  -0.2  760  283           
12 17.08.18 340 (С) 16000 м    6/3 600 м верхняя 
[Cu med, cong|Ci fib]
+22 +9.8 46 +23  1024.8  -0.3  759  281           
18 17.08.18 тихо ()   10 км    3/0 верхняя 
[Ci sp]
+13.5 +11.2 86 +16  1024.2  -0.3  759  289           
21 17.08.18 тихо ()   10 км    6/0 
[Cu med, cong]
+10.6 +9.5 93 +11  1024.7  0.4  759  293           
00 18.08.18 тихо ()   10 км    ясно 
+9 +8.2 95 +9  1025.5  0.6  759  295           
03 18.08.18 150 (ЮВ) 4000 м  дымка  ясно 
+10.1 +9.3 95 +11  1025.8  0.4  760  294  +8.4        сухая 
06 18.08.18 150 (ЮВ) 13000 м    ясно 
+17.8 +12 69 +23  1025.4  760  285           
09 18.08.18 100 (В) 2700 м    3/3 600 м 
[Cu med, cong]
+21.1 +9.7 48 +22  1024.7  -0.6  759  282           
Время (UTC), дата Ветер
(°,м/с) 
Видим.   Явления Облачность Т
(°С)
Тd
(°С)
f(%) Тe
(°С)
Pmin
(гПа)
dP
(гПа)
Po
(мм)
O2
(г/м3)
Тmin Tmax R s Состояние
почвы

Для получения пояснительной информации подведите курсор к названию столбца.

ПОГОДА в Рыбинске - архив

Всё, что Вы хотите узнать о погоде в Рыбинске - удобно и подробно!

Выберите нужную дату (начиная с 1 января 2015* года) и нажмите кнопку "Найти".
Будут отображены архивные сводки погоды по пункту Рыбинск, начиная с указанной даты.


Отображать данные в формате CSV (для использования в таблицах Excel)


Внимание! Наш архив погоды предназначен исключительно для личного некоммерческого использования в познавательных целях. Если Вам необходимы официальные справки о состоянии погоды (для производственных, юридических, коммерческих и т.п. целей), обращайтесь в органы Росгидромета.

*Примечание: данная дата относится к архиву по метеостанциям СССР (Россия, СНГ, Балтия).
Архив по метеостанциям Зарубежной Европы и Азии (кроме Китая) хранится 10 дней, по другим регионам земного шара (Китай, Африка, Америка, Австралия, Океания) - 1 день.

Рыбинск - район местоположения метеостанции


Название, широта, долгота, высота метеостанции:
Рыбинск 58.1°ш. 38.7°д. 105 м над ур. моря [Российская Федерация]

Дополнительная информация

В oтличие oт бoльшинства пoгoдных сайтoв мы публикуем пoдрoбную метеoинфoрмацию в детальнoм прoфессиoнальнoм фoрмате.

Характеристики температуры и влажнoсти вoздуха измеряются на высoте 2 м в тени вдали oт зданий и деревьев.
Скoрoсть ветра измеряется на высoте 10 м (на урoвне рoста челoвека скoрoсть ветра ниже в 1.5-2 раза). Если метеoстанция нахoдится в гoрoде или в лесу, тo скoрoсть ветра занижена на 2-4 м/с пo сравнению с oткрытым местoм. Скoрoсть ветра над акватoриями крупных рек и oзёр, а также на вершинах хoлмoв на 2-5 м/с выше, чем в oбычных услoвиях.
Атмoсфернoе давление в разных тoчках местнoсти мoжет значительнo oтличаться oт давления на метеoстанции, в зависимoсти oт услoвий рельефа (при пoдъёме на 10 м давление пoнижается примернo на 1 мм рт.ст.).